This demonstration page uses our WeatherBlox Daily Observations layout. Learn more.

Left ArrowRight Arrow

34.74481, -87.66753

Hourly Observations for October 9, 2021

Temp ( °F °C ) Dew Point ( °F °C ) Humidity (%) Winds ( mph kmh ) Pressure ( in mb ) Visibility ( mi km ) Precip ( " mm )
12:20 am 00:20 Clear with Mist and Fog 66 18.9 63 17.2 90 90 N N/A 30.04 1017 1 1 N/A
12:26 am 00:26 Clear with Mist and Fog 66 18.9 63 17.2 90 90 N N/A 30.04 1017 2 3 N/A
12:53 am 00:53 Clear with Mist and Fog 66 18.9 62 16.7 87 87 N N/A 30.03 1017 4 6 N/A
1:53 am 01:53 Clear with Mist and Fog 66 18.9 63 17.2 90 90 N N/A 30.03 1017 4 6 N/A
2:32 am 02:32 Clear with Mist and Fog 65 18.3 62 16.7 90 90 N N/A 30.04 1017 2 3 N/A
2:43 am 02:43 Clear with Fog 64 17.8 61 16.1 90 90 N N/A 30.04 1017 1 1 N/A
2:53 am 02:53 Clear with Fog 64 17.8 61 16.1 90 90 N N/A 30.03 1017 1 1 N/A
3:12 am 03:12 Clear with Fog 64 17.8 61 16.1 90 90 N N/A 30.03 1017 0 0 N/A
3:28 am 03:28 Clear with Fog 64 17.8 61 16.1 90 90 N N/A 30.03 1017 1 1 N/A
3:44 am 03:44 Clear with Mist and Fog 64 17.8 61 16.1 90 90 N N/A 30.03 1017 3 4 N/A
3:51 am 03:51 Clear with Mist and Fog 64 18 61 16 88 88 N N/A 30.03 1017 4 6 N/A
3:53 am 03:53 Clear with Mist and Fog 65 18.3 61 16.1 87 87 N N/A 30.02 1017 4 6 N/A
4:53 am 04:53 Clear with Mist and Fog 64 17.8 60 15.6 87 87 N N/A 30.03 1017 5 8 N/A
5:05 am 05:05 Clear with Mist and Fog 63 17.2 60 15.6 90 90 N N/A 30.04 1017 2 3 N/A
5:12 am 05:12 Mostly Cloudy with Fog 63 17.2 60 15.6 90 90 N N/A 30.04 1017 1 1 N/A
5:35 am 05:35 Mostly Clear with Mist and Fog 63 17.2 60 15.6 90 90 N N/A 30.04 1017 1 2 N/A
5:44 am 05:44 Clear with Mist and Fog 64 17.8 61 16.1 90 90 N N/A 30.04 1017 3 4 N/A
5:53 am 05:53 Clear with Mist and Fog 63 17.2 60 15.6 90 90 N N/A 30.03 1017 3 5 N/A
6:03 am 06:03 Mostly Clear with Mist and Fog 62 16.7 59 15 90 90 N N/A 30.03 1017 2 3 N/A
6:07 am 06:07 Mostly Cloudy with Mist and Fog 62 16.7 59 15 90 90 N N/A 30.03 1017 1 1 N/A
6:34 am 06:34 Partly Cloudy with Mist and Fog 63 17.2 60 15.6 90 90 N N/A 30.03 1017 1 2 N/A
6:39 am 06:39 Mostly Cloudy with Mist and Fog 63 17.2 60 15.6 90 90 N N/A 30.03 1017 2 2 N/A
6:48 am 06:48 Mostly Cloudy with Fog 63 17 61 16 94 94 N N/A 30.04 1017 1 1 N/A
6:53 am 06:53 Mostly Cloudy with Fog 63 17.2 60 15.6 90 90 N N/A 30.04 1017 1 1 N/A
7:02 am 07:02 Mostly Cloudy with Fog 63 17.2 60 15.6 90 90 N N/A 30.04 1017 0 0 N/A
7:15 am 07:15 Sunny with Fog 63 17.2 60 15.6 90 90 N N/A 30.04 1017 0 0 N/A
7:22 am 07:22 Sunny with Fog 62 16.7 59 15 90 90 ESE 3 6 30.04 1017 1 1 N/A
7:35 am 07:35 Sunny with Mist and Fog 64 17.8 61 16.1 90 90 N N/A 30.04 1017 3 4 N/A
7:42 am 07:42 Sunny with Mist and Fog 65 18.3 62 16.7 90 90 ESE 3 6 30.04 1017 4 6 N/A
7:53 am 07:53 Sunny with Mist and Fog 65 18.3 62 16.7 90 90 N N/A 30.04 1017 3 5 N/A
8:53 am 08:53 Sunny 70 21.1 64 17.8 82 82 N N/A 30.05 1018 9 14 N/A
9:53 am 09:53 Sunny 76 24.4 64 17.8 67 67 N N/A 30.05 1018 10 16 N/A
10:53 am 10:53 Sunny 81 27.2 64 17.8 57 57 VRB 5 7 30.05 1018 10 16 N/A
11:53 am 11:53 Sunny 84 28.9 64 17.8 51 51 VRB 5 7 30.03 1017 10 16 N/A
12:53 pm 12:53 Sunny 85 29.4 63 17.2 48 48 WSW 7 11 30.00 1016 10 16 N/A
1:53 pm 13:53 Sunny 87 30.6 63 17.2 45 45 VRB 7 11 29.98 1015 10 16 N/A
2:53 pm 14:53 Sunny 87 30.6 63 17.2 45 45 WSW 8 13 29.96 1015 10 16 N/A
3:53 pm 15:53 Sunny 86 30 62 16.7 45 45 SW 8 13 29.95 1014 10 16 N/A
4:53 pm 16:53 Sunny 84 28.9 62 16.7 48 48 SSW 6 9 29.95 1014 10 16 N/A
5:53 pm 17:53 Sunny 82 27.8 64 17.8 55 55 SSW 5 7 29.96 1014 10 16 N/A
6:53 pm 18:53 Clear 73 22.8 66 18.9 79 79 SE 3 6 29.96 1015 10 16 N/A
7:53 pm 19:53 Clear 73 22.8 66 18.9 79 79 SSE 3 6 29.98 1015 10 16 N/A
8:53 pm 20:53 Clear 72 22.2 65 18.3 79 79 SE 3 6 29.98 1015 10 16 N/A
9:53 pm 21:53 Clear 72 22.2 65 18.3 79 79 N N/A 29.97 1015 10 16 N/A
10:53 pm 22:53 Clear 70 21.1 65 18.3 84 84 S 3 6 29.96 1015 10 16 N/A
11:53 pm 23:53 Clear 70 21.1 65 18.3 84 84 SSE 3 6 29.96 1015 10 16 N/A

Powered by AerisWeather